Flag for Micronesia Weather past 2 weeks in Kolonia, Ponape, Micronesia

Now
86 °F

Mostly cloudy.


Feels Like: 97 °F
Forecast: 75 / 87 °F
Wind: 3 mph from Southwest

Location: Pohnpei

Current Time: Aug 30, 2014 at 5:42:29 PM

Latest Report: Aug 30, 2014 at 4:53 PM


Visibility: 15 mi

Pressure: 29.73 "Hg

Humidity: 73%

Dew point: 77 °F

Location of KoloniaLocation

Historic Weather in Kolonia — Graph

°F

Kolonia temperature yesterday

Maximum temperature yesterday: 91 °F (at 1:52 PM)
Minimum temperature yesterday: 75 °F (at 2:52 AM)
Average temperature yesterday: 82 °F

Past Weeks' High & Low Weather Summary

 TemperatureHumidityPressure
High91 °F (Aug 19, 10:54 AM)99% (Aug 16, 11:55 PM)29.94 "Hg (Aug 16, 11:55 PM)
Low73 °F (Aug 25, 5:53 AM)61% (Aug 29, 11:52 AM)29.73 "Hg (Aug 30, 3:53 PM)
Average81 °F86%29.84 "Hg
* Reported Aug 15 3:53 PM — Aug 30 3:53 PM, Kolonia, Weather by CustomWeather, © 2014

Note: Actual official high and low records may vary slightly from our data, if they occured in-between our weather recording intervals... More about our weather records

Advertising

Kolonia weather history for previous 24 hours

 ConditionsComfort  
Time TempWeatherWind HumidityBarometerVisibility
3:53 PM
Aug 30
86 °FMore clouds than sun.5 mph73%29.73 "Hg15 mi
2:51 PM86 °FMore clouds than sun.3 mph80%29.73 "Hg15 mi
1:52 PM86 °FMore clouds than sun.5 mph80%29.75 "Hg15 mi
12:52 PM90 °FMore clouds than sun.6 mph74%29.77 "Hg15 mi
11:55 AM89 °FMore clouds than sun.8 mph68%29.79 "Hg15 mi
10:54 AM87 °FBroken clouds.6 mph68%29.81 "Hg15 mi
9:53 AM87 °FBroken clouds.6 mph72%29.82 "Hg15 mi
8:50 AM87 °FScattered clouds.3 mph73%29.80 "Hg15 mi
7:50 AM84 °FScattered clouds.3 mph84%29.80 "Hg15 mi
5:50 AM76 °FPassing clouds.3 mph96%29.78 "Hg15 mi
4:50 AM76 °FPassing clouds.3 mph96%29.78 "Hg15 mi
3:51 AM76 °FClear.3 mph96%29.78 "Hg15 mi
2:53 AM76 °FClear.3 mph96%29.78 "Hg15 mi
1:51 AM77 °FPassing clouds.3 mph91%29.79 "Hg15 mi
12:51 AM77 °FMostly cloudy.3 mph93%29.80 "Hg15 mi
11:53 PM
Aug 29
78 °FMostly cloudy.3 mph92%29.80 "Hg15 mi
10:53 PM79 °FMostly cloudy.3 mph90%29.81 "Hg15 mi
9:50 PM80 °FOvercast.3 mph89%29.80 "Hg15 mi
8:54 PM80 °FMostly cloudy.No wind88%29.80 "Hg15 mi
7:55 PM81 °FMostly cloudy.3 mph84%29.80 "Hg15 mi
6:54 PM82 °FOvercast.3 mph82%29.79 "Hg15 mi
5:52 PM85 °FOvercast.3 mph73%29.77 "Hg15 mi
Weather by CustomWeather, © 2014

See weather overviewHow to use our weather pages